When you browse on this site, cookies collect data to enhance your experience and personalize the content and advertising you see.
Visit our Privacy Policy to learn more. By continuing to use the site, you agree to this use of cookies and data.
  • In Hungary
  • List of Countries
  • For 7 days
  • Water Temperature
  • Satellite Maps
  • Weather Map
  • News
  • Weather Widgets
  • user-avatar
    Login

    Hourly Weather Osmaniye

    Today, 15 December, Saturday

    Time Temperature Precipitation Wind Pressure Humidity
    00:00 +11°C° 0 mm 1 mps 758 mmHg 70%
    01:00 +11°C° 0 mm 1 mps 758 mmHg 70%
    02:00 +10°C° 0 mm 2 mps 758 mmHg 73%
    03:00 +10°C° 0 mm 2 mps 758 mmHg 73%
    04:00 +10°C° 0 mm 2 mps 758 mmHg 74%
    05:00 +10°C° 0 mm 2 mps 758 mmHg 75%
    06:00 +10°C° 0 mm 2 mps 758 mmHg 74%
    07:00 +10°C° 0 mm 2 mps 758 mmHg 73%
    08:00 +12°C° 0 mm 2 mps 758 mmHg 73%
    09:00 +14°C° 0 mm 2 mps 758 mmHg 68%
    10:00 +15°C° 0 mm 2 mps 758 mmHg 63%
    11:00 +16°C° 0 mm 2 mps 758 mmHg 58%
    12:00 +17°C° 0 mm 2 mps 757 mmHg 57%
    13:00 +17°C° 0 mm 2 mps 757 mmHg 56%
    14:00 +18°C° 0 mm 2 mps 757 mmHg 55%
    15:00 +16°C° 0 mm 2 mps 757 mmHg 60%
    16:00 +15°C° 0 mm 2 mps 757 mmHg 64%
    17:00 +14°C° 0 mm 2 mps 757 mmHg 69%
    18:00 +14°C° 0 mm 2 mps 757 mmHg 70%
    19:00 +13°C° 0 mm 2 mps 757 mmHg 71%
    20:00 +13°C° 0 mm 2 mps 757 mmHg 73%
    21:00 +13°C° 0 mm 2 mps 757 mmHg 73%
    22:00 +12°C° 0 mm 2 mps 757 mmHg 73%
    23:00 +12°C° 0 mm 2 mps 756 mmHg 74%

    Tomorrow, 16 December, Sunday

    Time Temperature Precipitation Wind Pressure Humidity
    00:00 +11°C° 0 mm 3 mps 756 mmHg 74%
    01:00 +11°C° 0 mm 3 mps 756 mmHg 74%
    02:00 +11°C° 0 mm 3 mps 756 mmHg 74%
    03:00 +10°C° 0 mm 3 mps 756 mmHg 75%
    04:00 +10°C° 0 mm 3 mps 755 mmHg 75%
    05:00 +10°C° 0 mm 3 mps 755 mmHg 76%
    06:00 +10°C° 0 mm 3 mps 755 mmHg 74%
    07:00 +11°C° 0 mm 3 mps 755 mmHg 73%
    08:00 +11°C° 0 mm 3 mps 755 mmHg 72%
    09:00 +13°C° 0 mm 3 mps 755 mmHg 66%
    10:00 +14°C° 0 mm 3 mps 755 mmHg 59%
    11:00 +17°C° 0 mm 3 mps 755 mmHg 53%
    12:00 +17°C° 0 mm 3 mps 754 mmHg 53%
    13:00 +17°C° 0 mm 4 mps 754 mmHg 53%
    14:00 +18°C° 0 mm 4 mps 753 mmHg 52%
    15:00 +17°C° 0 mm 3 mps 753 mmHg 57%
    16:00 +14°C° 0 mm 3 mps 754 mmHg 61%
    17:00 +13°C° 0 mm 3 mps 754 mmHg 65%
    18:00 +13°C° 0 mm 3 mps 754 mmHg 66%
    19:00 +13°C° 0 mm 3 mps 754 mmHg 67%
    20:00 +12°C° 0 mm 3 mps 754 mmHg 68%
    21:00 +12°C° 0 mm 3 mps 754 mmHg 69%
    22:00 +12°C° 0 mm 3 mps 754 mmHg 70%
    23:00 +12°C° 0 mm 3 mps 754 mmHg 70%

    Day after tomorrow, 17 December, Monday

    Time Temperature Precipitation Wind Pressure Humidity
    00:00 +11°C° 0 mm 3 mps 754 mmHg 71%
    01:00 +11°C° 0 mm 3 mps 754 mmHg 72%
    02:00 +11°C° 0 mm 3 mps 753 mmHg 73%
    03:00 +11°C° 0 mm 3 mps 753 mmHg 73%
    04:00 +11°C° 0 mm 3 mps 753 mmHg 73%
    05:00 +11°C° 0 mm 3 mps 752 mmHg 74%
    06:00 +11°C° 0 mm 3 mps 753 mmHg 73%
    07:00 +11°C° 0 mm 3 mps 753 mmHg 73%
    08:00 +12°C° 0 mm 3 mps 753 mmHg 73%
    09:00 +14°C° 0.1 mm 2 mps 753 mmHg 70%
    10:00 +14°C° 0.1 mm 2 mps 753 mmHg 67%
    11:00 +15°C° 0.1 mm 2 mps 752 mmHg 64%
    12:00 +15°C° 0.2 mm 2 mps 752 mmHg 65%
    13:00 +15°C° 0.2 mm 2 mps 752 mmHg 66%
    14:00 +15°C° 0.2 mm 2 mps 751 mmHg 66%
    15:00 +14°C° 0.3 mm 2 mps 751 mmHg 70%
    16:00 +14°C° 0.3 mm 2 mps 751 mmHg 73%
    17:00 +13°C° 0.3 mm 1 mps 752 mmHg 77%
    18:00 +13°C° 0.3 mm 1 mps 752 mmHg 78%
    19:00 +13°C° 0.3 mm 1 mps 752 mmHg 79%
    20:00 +12°C° 0.3 mm 1 mps 753 mmHg 80%
    21:00 +12°C° 0.2 mm 1 mps 753 mmHg 81%
    22:00 +12°C° 0.2 mm 1 mps 753 mmHg 82%
    23:00 +12°C° 0.2 mm 1 mps 753 mmHg 82%

    18 December, Tuesday

    Time Temperature Precipitation Wind Pressure Humidity
    00:00 +11°C° 0.1 mm 1 mps 753 mmHg 83%
    01:00 +11°C° 0.1 mm 1 mps 753 mmHg 83%
    02:00 +11°C° 0.1 mm 1 mps 753 mmHg 83%
    03:00 +11°C° 0 mm 1 mps 753 mmHg 83%
    04:00 +11°C° 0 mm 1 mps 753 mmHg 83%
    05:00 +10°C° 0 mm 1 mps 753 mmHg 84%
    06:00 +11°C° 0 mm 1 mps 753 mmHg 82%
    07:00 +10°C° 0 mm 2 mps 754 mmHg 81%
    08:00 +12°C° 0 mm 2 mps 754 mmHg 79%
    09:00 +13°C° 0.1 mm 2 mps 754 mmHg 75%
    10:00 +14°C° 0.1 mm 1 mps 754 mmHg 71%
    11:00 +15°C° 0.1 mm 1 mps 754 mmHg 67%
    12:00 +15°C° 0.1 mm 1 mps 754 mmHg 67%
    13:00 +15°C° 0.1 mm 1 mps 753 mmHg 68%
    14:00 +15°C° 0.1 mm 1 mps 753 mmHg 69%
    15:00 +14°C° 0.1 mm 1 mps 753 mmHg 72%
    16:00 +14°C° 0.1 mm 1 mps 754 mmHg 75%
    17:00 +13°C° 0.1 mm 1 mps 754 mmHg 78%
    18:00 +13°C° 0.1 mm 2 mps 754 mmHg 79%
    19:00 +13°C° 0.1 mm 2 mps 754 mmHg 80%
    20:00 +13°C° 0.1 mm 2 mps 755 mmHg 81%
    21:00 +13°C° 0.2 mm 2 mps 755 mmHg 81%
    22:00 +13°C° 0.2 mm 2 mps 754 mmHg 82%
    23:00 +12°C° 0.2 mm 3 mps 754 mmHg 82%

    19 December, Wednesday

    Time Temperature Precipitation Wind Pressure Humidity
    00:00 +12°C° 0.3 mm 3 mps 754 mmHg 83%
    01:00 +12°C° 0.3 mm 3 mps 754 mmHg 84%
    02:00 +12°C° 0.3 mm 3 mps 753 mmHg 85%
    03:00 +12°C° 0.6 mm 3 mps 753 mmHg 85%
    04:00 +11°C° 0.6 mm 3 mps 752 mmHg 86%
    05:00 +11°C° 0.6 mm 3 mps 752 mmHg 86%
    06:00 +11°C° 2 mm 4 mps 752 mmHg 87%
    07:00 +11°C° 2 mm 4 mps 752 mmHg 88%
    08:00 +11°C° 2 mm 4 mps 752 mmHg 89%
    09:00 +11°C° 3.7 mm 4 mps 751 mmHg 89%
    10:00 +11°C° 3.7 mm 4 mps 751 mmHg 89%
    11:00 +11°C° 3.7 mm 4 mps 751 mmHg 89%
    12:00 +11°C° 4.4 mm 3 mps 750 mmHg 90%
    13:00 +11°C° 4.4 mm 3 mps 750 mmHg 90%
    14:00 +11°C° 4.4 mm 3 mps 749 mmHg 91%
    15:00 +12°C° 2.9 mm 2 mps 749 mmHg 91%
    16:00 +10°C° 2.9 mm 2 mps 749 mmHg 90%
    17:00 +10°C° 2.9 mm 2 mps 749 mmHg 90%
    18:00 +10°C° 0.7 mm 2 mps 749 mmHg 90%
    19:00 +11°C° 0.7 mm 1 mps 749 mmHg 90%
    20:00 +12°C° 0.7 mm 1 mps 749 mmHg 90%
    21:00 +11°C° 1 mm 1 mps 749 mmHg 90%
    22:00 +11°C° 1 mm 1 mps 749 mmHg 90%
    23:00 +11°C° 1 mm 1 mps 749 mmHg 91%

    20 December, Thursday

    Time Temperature Precipitation Wind Pressure Humidity
    00:00 +11°C° 0.7 mm 1 mps 749 mmHg 90%
    01:00 +11°C° 0.7 mm 1 mps 749 mmHg 90%
    02:00 +11°C° 0.7 mm 1 mps 749 mmHg 90%
    03:00 +11°C° 0 mm 1 mps 749 mmHg 90%
    04:00 +11°C° 0 mm 1 mps 749 mmHg 90%
    05:00 +10°C° 0 mm 1 mps 749 mmHg 89%
    06:00 +11°C° 0 mm 1 mps 750 mmHg 88%
    07:00 +11°C° 0 mm 1 mps 750 mmHg 86%
    08:00 +11°C° 0 mm 1 mps 750 mmHg 85%
    09:00 +13°C° 0 mm 1 mps 751 mmHg 79%
    10:00 +14°C° 0 mm 1 mps 751 mmHg 74%
    11:00 +15°C° 0 mm 1 mps 751 mmHg 68%
    12:00 +15°C° 0.1 mm 1 mps 751 mmHg 66%
    13:00 +15°C° 0.1 mm 1 mps 751 mmHg 64%
    14:00 +15°C° 0.1 mm 1 mps 751 mmHg 62%
    15:00 +14°C° 0.1 mm 1 mps 751 mmHg 66%
    16:00 +13°C° 0.1 mm 1 mps 751 mmHg 71%
    17:00 +13°C° 0.1 mm 1 mps 752 mmHg 75%
    18:00 +12°C° 0.1 mm 1 mps 752 mmHg 76%
    19:00 +12°C° 0.1 mm 1 mps 753 mmHg 76%
    20:00 +12°C° 0.1 mm 1 mps 753 mmHg 76%
    21:00 +11°C° 0 mm 1 mps 753 mmHg 76%
    22:00 +11°C° 0 mm 1 mps 753 mmHg 76%
    23:00 +11°C° 0 mm 1 mps 754 mmHg 76%
    Show more